Theta_e
304 295 293 293 295 298 300 300 301 301 301 301 300 299 299 298 299 302 302 303 304 300 299 300 300 300 301 302 304 306 309 309 308 308 317 321 320 320 320 320 321 325 324 333 338 338 337 338 339 340 340 340 340 340 336 336 336 337 336 337 338 340 341 339 337 337 337 336 336 337 335 335 337 335 336 336 336 337 339 339 339 340 340 339 338 340
303 295 295 298 299 300 301 303 303 301 301 300 299 298 298 299 297 301 301 302 303 301 298 300 299 299 301 303 304 306 306 306 307 308 320 319 318 319 320 319 321 323 327 328 331 333 332 331 330 330 335 335 337 336 334 336 339 340 339 337 336 336 339 339 339 339 338 338 336 336 334 335 336 335 335 334 336 338 339 338 339 340 341 341 340 341
296 294 297 300 302 303 303 303 302 301 300 300 299 298 297 298 300 302 302 304 303 301 298 299 298 299 301 302 303 304 304 307 309 309 309 311 318 319 320 321 320 324 327 327 328 328 328 328 327 328 327 329 335 337 337 337 338 338 338 338 337 338 338 338 340 339 337 339 338 337 337 338 333 336 338 337 337 339 338 338 337 338 339 340 341 342
294 296 300 302 302 301 301 302 302 301 301 299 299 297 295 299 296 294 300 301 303 301 299 300 298 299 301 303 303 305 304 305 307 309 309 310 311 318 318 321 323 325 326 325 324 326 326 326 326 326 325 327 331 334 337 337 339 339 338 337 339 338 339 339 339 339 341 341 340 336 335 335 335 334 337 337 338 337 337 336 337 337 338 339 341 341
296 300 303 302 301 301 299 300 300 300 298 301 300 298 297 297 297 297 298 301 303 303 303 300 297 296 299 299 301 304 306 305 305 307 308 310 310 311 322 321 323 325 326 325 325 325 324 323 324 325 325 329 328 333 338 339 339 339 338 339 339 339 339 339 340 340 339 338 337 338 337 334 334 336 335 334 333 335 335 336 336 335 337 339 342 341
299 304 305 300 300 300 299 298 299 301 297 299 301 299 299 299 298 299 300 299 297 296 300 298 291 291 297 298 299 302 304 303 305 305 305 308 310 309 312 318 322 327 327 327 326 326 325 324 325 325 326 326 327 331 337 340 341 340 339 339 340 338 339 338 339 339 338 336 335 334 332 331 329 328 329 328 329 330 331 334 338 337 338 339 338 341
300 305 304 301 300 299 299 298 301 301 297 295 297 301 300 299 299 298 298 297 292 290 298 302 291 288 297 297 299 300 301 302 305 305 306 307 307 308 310 313 319 321 327 327 327 326 325 325 325 325 324 327 328 331 336 338 339 339 339 338 337 336 337 338 338 338 337 336 336 335 333 333 331 330 331 334 335 335 336 337 337 339 339 338 336 335
302 302 302 301 301 299 298 297 301 301 297 294 301 302 301 299 298 298 297 297 295 300 300 299 297 291 291 296 301 302 301 301 302 303 305 306 307 308 311 315 318 319 322 328 328 326 326 326 326 323 326 327 328 330 333 334 337 338 337 336 335 335 335 337 338 336 335 334 334 334 334 333 332 332 332 334 335 336 336 334 336 336 337 337 335 333
303 300 301 299 300 298 297 299 301 301 298 297 301 301 300 300 300 299 298 296 297 295 291 295 298 291 290 296 301 301 298 300 301 303 305 305 307 309 315 315 318 320 322 329 328 328 327 327 326 327 326 328 330 332 332 333 334 337 336 335 335 334 334 337 338 335 336 335 334 335 334 332 333 334 334 334 334 333 334 332 334 334 335 335 335 334
303 302 302 302 300 297 300 302 302 301 297 301 302 303 301 301 300 299 297 296 295 292 288 292 296 289 290 296 297 301 299 299 300 302 304 306 308 309 314 316 320 322 322 323 328 329 329 329 328 327 327 328 330 330 332 334 333 334 337 335 336 334 334 337 337 337 337 336 336 335 334 333 332 333 334 333 333 332 333 331 332 332 331 331 333 335
304 307 307 303 300 302 302 302 302 301 301 304 302 300 299 299 298 298 297 296 293 287 289 294 296 293 287 294 296 300 303 305 304 305 308 310 313 314 318 317 321 321 321 321 323 331 332 331 328 325 326 326 328 329 329 330 332 334 336 335 334 335 335 336 336 337 337 337 337 335 334 334 333 332 332 331 330 331 332 329 329 330 330 330 331 336
302 303 302 303 306 305 304 301 303 303 303 302 299 297 296 295 297 295 294 295 286 284 291 295 295 295 286 291 298 307 309 310 309 308 309 310 311 312 315 318 320 319 320 321 325 330 332 332 328 327 325 325 327 328 327 328 334 334 336 334 333 334 334 334 336 336 336 336 336 336 335 335 334 333 332 331 330 330 330 329 328 330 329 330 335 337
296 299 303 304 307 304 301 298 300 301 302 299 298 296 290 288 288 285 289 284 285 284 292 295 296 292 291 296 303 306 307 311 312 311 310 309 309 311 313 319 319 322 319 322 326 330 332 331 330 324 323 324 326 323 327 332 333 335 334 334 333 332 332 333 335 335 335 335 335 336 336 336 336 336 334 335 333 333 331 331 330 330 330 332 333 334
294 300 301 302 303 305 302 295 295 295 297 297 295 293 289 284 284 281 285 287 288 292 296 294 297 291 300 301 307 307 310 312 313 315 314 311 311 313 314 320 322 323 322 324 327 329 330 331 331 329 323 323 324 322 324 331 334 335 334 334 333 332 333 333 334 335 334 335 335 336 335 336 336 336 335 334 334 334 333 332 332 332 332 332 332 333
288 289 295 299 296 304 301 300 298 297 297 296 299 295 292 290 286 281 284 282 285 288 294 298 293 289 291 298 309 311 313 314 314 316 317 318 316 319 319 321 321 321 319 321 321 324 328 330 331 331 329 326 326 326 330 333 335 335 334 334 334 333 334 334 334 334 334 335 335 335 335 335 335 336 337 336 335 333 333 334 333 333 332 332 332 333
293 293 299 302 302 303 299 302 303 300 298 300 300 299 293 291 295 287 289 289 289 288 289 291 290 300 300 306 310 312 313 314 314 314 317 317 318 319 319 321 322 322 321 319 320 321 323 325 330 332 333 332 332 333 334 334 335 335 334 335 335 334 335 335 334 334 335 335 335 335 335 334 335 333 333 332 334 335 335 334 333 333 334 334 334 332
294 292 300 302 303 302 301 302 301 302 290 297 297 292 294 300 296 291 290 294 291 288 286 293 295 301 306 307 308 310 310 311 313 314 315 317 316 319 319 320 320 322 320 321 323 323 323 324 328 331 332 334 334 334 334 334 335 335 335 335 335 334 333 334 335 335 334 335 335 335 335 335 334 332 332 333 333 337 337 335 335 333 335 335 333 332
292 292 300 300 298 302 305 304 303 303 302 298 293 296 301 302 300 293 286 288 287 284 285 293 289 295 295 290 306 307 308 309 312 312 314 316 317 316 316 316 316 318 318 320 322 322 323 324 323 325 327 327 327 333 333 333 332 333 335 335 334 331 329 331 332 330 333 334 334 334 335 335 334 333 334 337 336 336 334 334 332 331 332 332 333 332
298 290 296 300 300 302 305 303 300 302 304 298 297 304 294 288 287 294 289 283 283 283 285 289 292 294 294 294 301 302 305 307 308 311 312 313 314 312 311 313 314 317 318 318 318 317 318 320 320 321 322 325 326 327 326 326 327 330 330 328 329 328 327 328 330 331 330 332 334 334 334 333 333 334 336 337 335 334 332 330 330 330 332 333 333 331
301 290 293 300 300 302 302 300 291 296 301 302 303 300 302 298 294 288 290 291 290 284 284 285 290 288 297 299 302 302 306 308 307 306 308 311 312 313 312 314 315 316 316 317 318 317 318 319 321 321 321 322 322 324 324 325 326 326 325 326 326 326 329 329 329 329 330 330 331 333 334 333 332 332 335 334 332 331 331 330 331 331 331 332 331 332
294 300 287 296 302 300 294 297 294 296 294 295 295 294 297 298 301 298 299 292 289 286 285 285 284 290 299 304 304 304 307 308 307 308 310 312 313 313 313 313 313 313 314 316 317 318 319 321 321 321 321 322 323 323 323 325 323 324 325 324 326 324 325 327 329 329 329 329 328 330 331 331 332 334 334 332 331 331 330 329 329 330 331 331 331 330
293 294 289 294 295 294 295 301 300 299 299 297 295 293 295 294 292 288 287 296 293 289 286 286 283 292 301 306 305 307 309 309 311 310 311 312 311 311 312 312 312 312 315 315 317 319 319 320 322 322 321 323 322 322 323 325 322 324 324 326 326 325 324 324 327 329 329 329 329 329 329 330 330 328 329 330 329 330 330 329 329 330 329 329 329 329
301 299 295 290 294 295 298 301 303 302 302 300 299 295 297 297 296 292 285 289 293 293 295 292 286 289 304 309 309 309 310 310 310 311 310 310 310 310 312 313 313 314 315 317 317 318 319 320 321 322 322 321 321 322 324 324 325 326 326 326 326 325 325 325 327 329 329 328 327 327 328 329 330 331 330 329 331 330 329 329 329 328 329 329 329 329
303 293 292 293 297 299 301 302 303 303 301 298 299 300 298 294 296 294 294 297 291 291 290 289 286 291 304 309 310 310 310 310 311 312 310 309 309 310 310 311 313 313 315 316 317 318 319 320 320 320 320 321 321 322 323 325 325 326 326 324 325 325 326 326 327 327 326 328 327 327 327 328 329 328 328 328 329 330 329 329 328 328 328 328 328 328
292 296 293 290 289 291 294 298 298 301 300 297 296 298 299 299 298 299 299 299 290 292 292 287 282 289 303 309 308 310 309 307 308 309 310 309 309 309 309 310 311 312 313 314 315 316 317 317 317 318 319 321 322 323 323 322 324 324 325 325 324 325 326 327 327 328 326 327 325 325 326 328 327 327 329 328 329 329 330 330 328 327 327 328 328 328
296 296 293 286 284 281 282 283 286 289 293 297 298 298 300 298 299 298 290 293 287 292 293 289 288 297 303 306 306 307 307 306 307 309 309 310 308 308 309 310 310 311 311 313 314 314 313 314 315 317 318 319 320 321 322 323 323 323 323 324 325 324 326 326 326 326 327 326 324 324 325 326 326 327 330 329 329 328 329 329 328 328 327 326 326 327
298 299 299 295 291 288 292 293 299 298 297 293 296 298 298 299 302 300 298 291 288 292 291 295 295 297 298 302 303 304 307 305 304 306 306 306 307 308 309 309 310 310 310 310 310 310 311 312 313 314 316 317 318 318 320 320 321 321 322 323 325 326 326 326 325 326 326 326 326 326 326 326 326 330 333 330 329 330 329 328 328 327 325 326 327 326
300 295 297 297 296 295 298 298 296 299 296 296 297 298 299 300 301 299 292 291 298 291 286 296 300 296 298 301 303 303 304 304 304 304 304 305 306 306 307 308 308 308 308 308 307 307 308 310 311 312 314 314 314 315 317 318 318 318 319 320 323 324 325 324 323 324 326 326 326 327 326 327 330 330 331 330 328 328 328 328 327 328 327 328 327 327
299 291 297 298 297 299 299 299 300 298 298 298 298 300 299 300 300 296 297 299 299 291 288 294 298 298 299 302 302 301 302 301 302 302 304 305 305 306 306 305 305 305 305 304 305 305 305 306 308 309 310 312 313 314 315 315 316 317 317 318 319 322 324 325 324 324 325 326 326 326 327 329 329 329 329 328 328 327 327 326 329 327 326 328 326 329
300 293 299 299 296 298 298 298 300 297 298 298 298 299 300 298 299 300 299 300 299 297 298 300 300 298 299 298 300 301 303 303 302 304 304 303 303 303 303 303 303 303 302 302 302 303 304 304 306 307 308 308 310 311 312 313 314 314 314 315 316 317 320 325 324 324 324 324 325 326 328 328 327 327 327 327 327 328 327 327 328 325 325 325 324 327
299 292 297 298 294 295 297 298 297 298 297 296 297 298 297 298 298 299 300 299 299 298 299 299 296 293 298 301 300 302 302 302 301 299 299 301 301 301 301 301 301 301 301 301 302 302 302 303 303 305 306 307 307 307 309 311 312 313 312 313 314 315 316 319 322 322 323 323 325 326 326 325 324 324 324 325 325 324 323 324 326 326 323 323 323 326
299 293 299 297 290 290 296 296 296 297 296 296 295 295 295 295 291 296 295 300 297 293 298 297 294 291 297 300 301 301 300 298 297 297 297 297 299 299 299 300 300 299 299 299 300 301 300 301 301 301 303 305 305 306 307 309 311 310 310 310 312 313 315 314 314 318 321 322 323 324 324 324 324 324 324 324 322 321 322 323 324 323 324 324 324 324
299 295 291 292 288 288 295 297 295 293 293 288 289 293 295 297 297 298 300 300 300 300 295 292 295 298 298 300 296 295 295 295 295 296 296 296 296 296 296 297 298 298 298 298 299 300 300 300 300 300 301 303 304 304 305 310 309 307 307 308 310 311 311 311 311 311 313 321 322 322 322 323 323 323 322 321 320 319 320 321 321 321 322 323 324 325
300 297 292 297 287 288 294 295 294 290 283 283 291 297 297 295 296 294 294 297 299 300 297 300 298 299 299 297 294 293 293 293 293 295 297 296 295 295 295 296 296 297 298 298 298 298 299 300 300 300 300 301 303 304 306 308 308 307 307 308 308 309 309 309 309 310 310 311 316 321 321 321 320 319 319 319 320 319 319 318 317 318 320 322 322 322
297 296 292 296 289 288 292 291 286 282 282 290 296 298 298 298 298 296 296 296 299 300 299 297 297 296 295 294 294 293 293 294 294 294 294 296 297 295 294 294 295 296 296 296 296 297 298 299 299 300 300 300 301 302 304 306 307 306 306 306 306 306 306 307 307 308 309 310 310 313 319 321 320 319 318 318 318 318 317 317 318 318 319 321 323 323
293 293 293 292 292 292 288 287 280 281 287 294 295 296 298 299 297 296 293 296 297 298 297 294 293 294 294 293 293 294 293 294 294 294 294 295 296 296 295 294 295 295 295 296 296 297 298 298 298 299 300 302 301 301 301 302 306 306 305 305 304 304 305 305 306 306 308 308 309 311 314 318 320 319 319 319 319 317 316 316 317 318 319 320 321 323
298 296 293 290 293 286 288 287 284 288 289 291 290 292 293 290 292 291 286 290 297 298 297 294 294 294 293 293 293 294 294 293 291 292 295 295 295 296 296 295 295 295 296 296 297 297 299 298 298 300 301 301 301 301 301 302 302 303 304 304 303 303 303 304 304 305 306 306 308 308 310 315 317 316 317 318 318 318 316 316 317 318 318 319 319 321
300 293 296 290 288 291 288 283 282 283 281 284 291 295 298 297 296 296 294 289 296 297 298 296 294 293 293 293 294 294 296 291 286 288 293 295 296 295 296 295 296 296 296 296 297 298 299 299 298 299 300 301 302 302 302 302 301 301 300 300 302 302 301 302 302 304 304 305 307 308 309 311 313 313 315 317 317 317 318 319 318 318 321 318 318 318
300 301 296 292 289 288 285 284 283 281 281 287 289 294 297 299 299 298 292 285 293 297 297 297 294 294 294 293 294 296 295 286 285 287 292 295 295 295 295 295 295 296 296 296 295 295 297 298 298 298 298 300 300 302 303 302 302 300 299 299 299 300 299 300 301 303 303 304 306 307 307 308 310 310 311 311 313 315 315 317 318 318 318 317 318 318
296 294 293 289 286 287 286 284 281 283 281 287 291 293 296 298 299 295 283 282 292 296 297 296 295 295 294 294 292 290 290 284 284 287 293 294 295 295 295 294 295 295 297 298 296 297 296 297 296 296 296 297 298 301 302 302 302 301 300 299 299 299 298 299 300 302 303 304 305 306 307 307 308 309 309 309 310 310 312 315 318 319 317 317 317 316
288 290 291 287 288 287 285 283 284 284 288 291 291 294 297 297 294 285 281 285 296 296 296 296 295 295 294 292 291 285 286 290 290 292 294 295 294 294 295 296 296 296 294 295 296 297 297 297 296 296 296 297 298 299 300 301 300 300 301 301 300 299 299 300 300 301 302 303 303 304 304 305 306 308 309 310 310 310 311 312 312 314 315 315 315 314
288 288 289 290 287 286 286 283 282 283 287 291 293 295 296 292 284 282 290 298 296 294 295 295 293 293 291 290 289 288 288 290 291 291 291 291 292 293 293 294 296 296 298 298 297 296 296 296 296 297 297 297 298 298 298 299 298 298 298 299 299 301 302 301 300 300 300 301 302 302 303 303 304 305 308 310 310 310 309 311 312 312 312 312 312 311
284 285 285 285 287 287 286 282 282 278 286 292 292 294 293 287 286 292 296 297 297 294 293 293 292 291 290 288 289 289 289 289 289 289 290 290 290 290 291 294 294 294 294 294 296 297 297 296 296 296 297 298 298 298 298 297 296 296 297 296 298 301 302 302 302 301 301 300 301 302 302 302 303 303 305 305 306 307 307 308 310 311 311 311 311 311
290 286 286 285 286 284 283 281 279 284 288 292 291 285 289 291 295 296 298 293 295 294 292 291 291 291 291 289 289 289 289 288 289 290 290 290 291 291 292 293 294 294 295 297 296 296 298 297 297 297 298 298 299 299 298 297 296 296 296 296 299 300 301 302 303 303 302 301 301 301 302 302 302 303 303 303 303 303 303 303 304 304 305 310 311 311
290 287 287 284 286 285 282 283 287 290 290 291 292 291 292 294 297 299 299 296 293 292 293 291 291 291 292 291 290 289 288 289 289 290 290 290 291 291 291 292 294 294 294 295 297 299 298 297 297 297 297 298 299 299 299 299 297 296 296 297 299 299 300 301 301 302 301 302 302 301 302 302 302 302 302 303 302 301 301 302 303 302 303 302 301 301
294 293 293 289 285 290 290 291 292 291 291 291 292 293 293 294 297 299 297 294 294 294 294 292 292 292 292 292 290 290 290 290 290 291 291 292 292 293 295 295 295 296 296 297 297 298 299 299 298 297 296 297 298 299 299 299 299 297 298 299 299 300 301 300 300 300 299 299 300 301 301 301 301 302 302 302 301 300 300 299 299 298 298 299 301 300
294 295 292 286 289 287 280 289 288 288 291 291 291 293 294 295 295 298 295 295 294 294 294 294 294 293 293 293 292 291 291 292 291 291 292 293 293 293 293 293 294 295 296 297 299 299 297 297 296 296 296 296 297 298 298 298 299 299 300 300 300 301 301 301 300 299 299 300 298 298 299 298 298 299 300 301 301 300 298 296 296 296 295 296 296 299
287 295 289 289 287 284 282 286 289 291 291 292 291 291 290 291 292 294 295 295 295 296 295 295 295 294 294 293 293 292 292 293 292 292 292 292 292 292 292 292 293 294 297 298 298 298 297 297 296 296 295 295 296 297 298 298 298 299 300 300 301 301 301 301 300 299 298 299 300 299 298 297 291 294 296 296 296 296 298 298 296 293 293 292 294 295
294 294 285 289 285 286 289 289 289 290 289 290 291 292 292 292 291 292 293 294 294 293 294 294 295 294 294 293 294 293 292 293 293 293 292 292 293 293 293 294 294 295 296 296 297 297 297 296 296 296 296 296 297 297 297 297 298 299 300 301 302 302 301 300 299 300 300 300 300 300 299 298 296 295 294 294 293 293 293 295 297 294 293 293 292 293
292 287 291 289 284 284 285 287 291 283 282 287 290 291 291 293 292 292 292 292 292 292 292 291 292 294 294 295 295 294 293 293 294 295 294 295 295 295 295 295 295 296 296 297 297 297 297 297 297 296 296 297 298 297 297 297 298 299 300 301 302 302 301 300 299 299 299 299 299 299 300 301 298 296 295 294 293 293 293 289 290 294 295 292 289 289
291 291 290 286 285 283 289 291 291 290 290 290 291 293 293 294 293 292 291 291 292 293 293 293 292 292 293 293 294 293 293 293 294 295 294 294 294 294 295 294 294 294 295 296 296 296 296 296 297 297 296 296 297 297 298 298 298 299 299 300 301 301 300 300 298 297 297 297 297 297 299 298 298 299 299 297 296 294 291 292 291 288 289 290 289 289
Wind_Speed
8 9 9 10 10 12 14 15 16 18 17 9 16 7 8 12 13 13 8 7 6 3 5 6 7 10 10 10 11 10 10 9 8 5 14 13 12 12 10 6 7 2 1 4 5 6 6 5 5 5 6 7 9 11 12 9 12 13 11 9 6 3 5 5 7 7 7 7 7 5 5 5 4 4 5 3 3 3 4 6 7 6 5 5 5 4
10 10 11 13 14 14 13 13 15 18 16 13 12 10 8 5 6 9 4 18 14 6 3 6 10 11 11 11 12 10 12 13 10 7 14 14 14 11 15 11 10 8 3 2 4 5 8 9 11 13 10 1 9 10 7 8 12 12 12 11 9 7 6 5 5 5 5 4 5 4 4 3 4 5 6 6 5 5 5 6 6 6 5 5 5 4
10 11 11 14 13 14 14 13 15 15 13 9 9 8 8 6 7 5 14 6 8 5 5 8 12 10 11 12 12 14 15 7 10 8 10 11 16 13 16 17 16 11 9 5 4 3 1 9 9 8 4 12 2 7 10 8 9 11 10 11 11 10 9 8 8 6 4 4 2 1 2 3 5 2 4 5 5 5 6 5 4 3 2 3 5 5
10 11 15 14 13 13 13 14 11 13 13 5 8 9 8 8 8 7 7 12 8 5 5 6 9 9 13 13 14 13 14 15 11 13 12 12 10 14 16 14 12 14 11 10 8 5 3 3 6 9 9 2 10 4 7 9 10 9 10 12 13 12 11 9 8 7 5 5 5 7 2 7 3 3 4 6 4 5 6 7 6 4 3 4 4 5
10 13 18 17 16 14 15 14 10 6 6 7 10 10 10 11 11 11 7 2 4 8 5 7 10 11 11 11 9 11 11 15 17 11 12 11 12 13 16 15 15 14 11 10 9 8 8 7 5 7 9 9 1 7 5 8 9 8 12 13 13 11 9 8 7 8 7 7 8 7 9 8 6 2 3 6 5 3 5 6 7 6 6 6 3 3
13 17 15 20 14 17 17 11 10 8 8 9 13 14 13 13 13 13 12 9 8 7 8 9 8 10 11 15 14 12 9 13 16 13 10 11 12 14 13 19 18 14 13 12 12 10 9 8 7 7 8 10 8 8 7 4 5 6 7 8 8 7 7 7 8 9 8 8 8 8 8 9 7 5 3 4 6 5 4 5 5 8 8 5 2 2
11 12 13 7 12 16 11 9 10 12 10 10 9 14 15 15 15 16 15 12 8 8 6 11 10 6 7 12 15 16 15 14 13 12 10 10 10 12 9 9 15 15 16 14 13 11 10 8 7 8 7 10 12 10 5 2 4 7 6 8 9 7 5 6 6 8 6 6 5 6 6 7 7 6 4 4 4 4 4 4 5 4 3 4 5 4
10 15 13 13 5 5 8 10 11 12 11 11 11 10 14 17 17 16 13 9 8 7 11 15 10 9 8 7 9 10 14 16 14 15 14 11 10 11 6 12 14 13 15 17 16 16 14 12 11 12 10 10 12 11 6 5 6 9 11 11 9 7 7 6 6 8 7 6 6 5 6 6 5 6 5 5 5 4 4 4 4 4 3 3 5 5
12 14 13 11 13 10 10 10 10 13 10 9 11 15 15 13 11 5 7 10 9 10 11 10 14 11 9 9 11 13 12 8 10 13 11 9 10 10 8 15 15 12 13 15 12 14 15 14 12 11 9 9 7 3 4 7 8 7 9 8 8 9 9 7 7 7 7 6 7 7 7 7 5 5 6 5 5 4 4 4 4 3 2 3 4 5
8 12 12 10 9 10 10 12 13 13 12 11 16 2 5 6 8 8 9 9 9 10 12 11 11 10 9 6 8 7 10 9 10 12 8 7 9 9 4 13 10 8 8 9 10 10 11 12 11 10 9 8 6 6 4 7 8 8 9 9 10 11 8 6 7 6 8 7 7 7 8 9 8 7 7 5 6 6 5 5 4 4 2 1 4 7
7 14 13 9 11 11 10 12 12 14 12 7 13 11 11 8 6 8 9 9 8 9 13 12 13 12 10 5 6 4 2 9 8 4 5 1 3 7 10 13 7 9 5 4 5 8 10 11 12 12 11 10 7 4 4 8 9 9 9 10 10 10 9 8 8 8 8 8 7 7 8 9 9 9 8 8 6 6 5 5 3 4 3 2 7 6
15 9 11 10 13 9 11 12 11 10 8 11 6 6 3 6 9 10 9 9 7 10 12 13 13 13 12 6 1 6 8 8 7 6 5 8 10 7 5 10 9 10 8 5 5 7 9 11 14 11 12 10 7 7 9 12 12 11 10 9 11 9 10 11 10 10 9 8 8 8 9 9 8 9 8 9 9 8 8 6 5 4 6 9 6 4
15 13 8 8 6 10 10 10 8 11 8 10 9 7 8 6 4 7 8 8 9 8 9 13 14 11 12 4 9 8 6 7 5 5 3 1 4 2 7 8 4 6 2 9 3 5 6 8 12 12 11 11 10 9 13 16 13 11 12 13 13 13 13 12 12 11 11 9 9 8 9 8 7 9 9 9 10 9 8 7 8 10 9 7 6 5
10 13 15 14 9 13 13 11 9 10 12 11 10 9 9 8 7 6 8 5 8 10 13 13 10 11 8 7 7 7 4 4 4 3 5 1 1 5 8 9 4 7 6 5 7 9 10 9 11 13 12 12 12 15 15 15 13 11 11 13 13 14 13 12 11 11 11 10 9 8 9 7 7 6 8 7 7 8 7 8 8 8 7 7 6 6
9 12 15 15 11 13 15 14 11 9 11 11 9 10 9 9 7 5 7 6 7 7 5 11 10 8 8 4 3 5 5 5 5 6 6 6 2 0 1 7 7 6 2 4 3 5 8 11 12 12 14 15 16 19 19 15 14 12 11 12 13 14 13 12 12 10 11 8 9 8 7 7 6 5 5 5 5 6 6 5 6 6 7 7 6 5
14 10 8 12 7 14 15 16 15 13 10 9 10 10 11 10 7 9 3 6 5 5 3 3 2 6 6 9 5 3 6 6 6 5 4 4 4 4 2 3 5 3 4 5 5 6 8 6 7 9 12 14 14 16 15 16 12 11 11 12 12 13 12 12 12 10 9 7 6 7 8 7 5 5 4 4 3 5 5 5 5 5 5 5 5 5
8 10 8 12 16 14 15 14 15 13 9 8 11 11 11 10 11 5 5 10 3 2 7 3 1 8 7 7 6 4 4 7 6 5 6 5 3 3 1 2 2 3 2 5 6 6 7 9 9 8 10 11 11 12 14 12 10 11 10 10 11 9 8 8 8 9 9 7 8 6 7 6 5 5 4 4 4 3 5 6 5 5 5 5 6 5
7 6 9 11 15 15 13 14 14 14 13 6 9 9 10 11 12 7 5 3 6 8 5 6 8 6 6 2 5 5 4 3 6 6 6 6 9 7 9 10 11 9 9 9 9 11 13 14 17 14 12 9 5 7 7 6 2 3 5 4 6 5 7 5 4 4 3 7 8 7 6 5 5 5 4 2 3 5 6 6 7 6 6 6 5 5
7 7 9 15 13 11 12 13 14 15 15 13 8 4 10 7 9 7 3 7 6 6 4 7 11 5 3 3 4 3 4 3 6 7 7 8 8 8 7 9 10 10 7 5 5 7 8 7 8 11 13 11 12 10 10 10 10 11 8 11 11 10 4 5 7 6 2 0 4 4 5 5 4 3 2 3 4 6 7 7 7 6 4 5 4 4
3 6 6 10 11 10 12 12 11 11 13 16 11 11 8 8 6 6 6 7 5 6 5 5 9 2 4 5 5 2 5 5 8 7 4 7 9 9 7 8 9 10 9 10 9 9 8 8 6 9 9 10 11 9 8 6 5 8 9 7 7 8 5 7 4 3 3 4 2 3 3 3 2 2 3 4 5 6 7 8 7 7 5 5 5 4
4 4 6 7 11 10 11 8 11 10 11 12 12 11 8 6 4 6 1 7 7 4 6 4 4 3 2 3 3 5 2 6 8 6 1 6 9 10 10 9 8 9 9 9 9 9 10 10 11 8 8 9 12 9 7 6 8 5 3 5 4 7 7 5 4 6 4 5 6 7 6 3 2 3 2 4 5 5 7 7 6 6 5 6 5 4
4 6 6 7 9 11 9 10 13 14 12 11 11 12 11 9 10 8 7 5 7 6 2 3 0 3 4 5 4 5 6 6 6 5 6 8 9 9 9 9 8 6 6 9 9 9 9 9 8 7 7 8 11 8 9 7 3 2 3 3 6 8 7 3 5 4 6 8 11 7 5 5 7 6 6 4 5 5 6 7 6 5 5 5 6 4
5 4 6 7 8 9 12 12 14 15 15 14 12 12 13 11 8 7 8 3 8 9 8 3 3 2 4 5 7 9 9 7 4 6 7 8 10 10 9 8 7 5 5 5 6 10 11 10 10 8 8 8 7 6 5 6 6 6 5 5 6 7 9 6 2 4 6 6 11 9 6 3 2 2 7 4 4 5 6 6 6 5 4 5 6 4
4 3 6 9 9 10 13 7 7 11 15 15 13 12 11 12 11 9 6 4 2 2 3 2 1 3 3 5 5 7 10 9 7 6 8 9 8 9 9 9 7 7 7 9 10 11 9 9 10 10 8 7 7 8 8 5 3 4 5 5 6 8 7 7 5 8 7 6 9 10 8 5 6 6 6 4 4 5 5 5 6 5 5 5 4 4
4 4 7 5 6 8 9 8 8 11 12 10 8 9 13 13 16 9 1 6 2 5 4 0 2 0 3 7 2 4 8 8 7 7 7 8 8 8 7 6 6 7 9 12 13 13 14 13 13 11 9 8 8 7 5 5 6 6 6 8 8 7 6 6 5 8 11 10 10 8 10 7 6 3 3 3 4 6 6 5 5 5 6 6 5 5
4 4 7 8 8 7 7 7 6 6 4 5 7 8 12 17 8 7 2 2 2 4 8 5 2 5 7 4 4 6 8 6 6 6 7 8 8 7 6 5 7 9 10 12 14 14 14 11 10 11 11 10 10 8 7 7 7 7 8 7 5 5 5 5 5 4 7 10 10 9 9 8 7 4 1 3 5 7 6 5 4 3 4 5 6 6
3 4 5 4 4 3 4 7 9 5 4 5 7 9 10 11 7 7 5 2 2 6 3 3 8 8 8 7 6 7 6 7 6 7 7 7 7 6 7 7 7 8 10 13 14 12 12 12 11 11 12 10 9 11 10 10 9 9 9 8 7 6 6 5 6 3 6 7 7 6 7 8 7 4 2 5 5 5 5 5 4 4 4 3 4 5
2 2 4 6 5 2 6 2 10 16 5 6 11 12 11 14 10 1 2 1 5 5 1 6 9 11 8 10 9 11 8 8 7 6 6 6 6 6 7 8 9 9 11 12 13 14 14 14 13 12 11 10 10 11 11 12 12 11 10 10 8 6 6 5 6 5 6 7 6 5 8 6 5 4 4 5 4 4 4 4 4 3 4 3 4 3
1 0 3 5 4 5 3 5 10 4 6 4 4 8 13 15 14 7 8 11 7 3 3 5 6 10 10 8 10 13 11 10 8 7 6 7 7 7 9 9 9 10 11 13 13 13 14 14 12 12 12 12 12 12 12 11 10 10 10 10 10 9 7 2 2 2 5 7 7 7 6 6 5 5 5 5 5 5 4 4 3 4 4 3 4 3
1 2 4 4 5 5 5 5 11 10 4 3 7 11 10 11 10 8 8 9 9 7 2 6 8 12 9 8 10 11 10 9 8 8 8 9 9 8 9 10 11 12 13 13 13 13 13 13 12 11 11 11 11 11 10 10 10 10 10 11 11 10 8 5 5 2 5 7 8 7 7 6 5 5 6 6 6 4 4 4 3 5 4 5 4 2
5 0 3 1 3 3 3 2 4 13 4 1 9 10 13 10 8 7 7 9 9 7 6 8 9 6 6 7 9 10 10 9 9 11 10 10 10 9 10 11 11 12 13 12 12 13 13 13 13 12 12 11 11 11 10 9 10 11 11 10 10 9 9 8 7 6 7 7 6 6 7 7 7 7 7 6 7 7 9 9 8 4 4 6 4 3
4 2 3 3 3 3 2 1 3 9 5 1 6 8 9 7 5 6 5 5 5 5 9 11 5 3 5 7 10 10 10 11 10 9 9 9 11 11 11 12 12 12 12 12 12 12 13 13 13 12 12 12 12 12 11 10 10 11 10 10 9 8 9 11 10 8 6 6 6 6 6 6 6 6 5 5 6 7 7 7 7 8 8 9 9 8
2 3 3 4 4 4 1 4 1 2 7 4 4 8 9 4 4 6 8 10 7 5 4 2 4 8 9 8 10 11 11 11 10 8 8 9 10 11 12 12 11 11 11 12 13 12 11 11 11 12 11 10 10 9 10 10 10 9 8 9 8 8 9 10 11 11 10 6 6 6 5 7 7 8 7 5 5 6 8 9 9 8 8 8 6 6
0 2 2 1 2 0 5 5 2 4 5 1 2 5 7 7 9 11 10 10 10 8 5 5 9 10 10 9 10 10 11 10 10 10 10 8 7 9 10 11 10 10 11 11 11 11 10 10 9 10 11 10 9 8 6 9 9 8 8 8 9 10 10 11 11 12 11 11 9 5 6 7 8 8 7 6 5 6 8 10 9 8 7 6 7 7
3 2 1 2 1 1 2 3 1 5 1 2 3 4 5 7 9 11 11 13 8 11 13 12 11 10 11 11 11 13 13 13 13 13 13 11 10 9 10 10 10 10 11 11 11 10 10 10 10 10 10 11 10 9 8 9 10 9 9 9 11 10 10 10 11 11 11 9 10 10 6 5 7 7 7 5 5 6 6 8 9 8 5 6 6 5
3 2 2 1 2 1 1 2 2 3 3 0 6 9 9 2 8 8 12 9 10 10 12 12 10 11 11 11 11 11 13 13 14 14 13 13 11 9 9 9 9 10 11 10 10 9 9 9 9 9 9 8 10 10 11 10 7 7 7 8 10 10 10 11 11 10 10 11 11 10 9 7 5 6 6 6 6 6 5 6 6 5 2 3 4 4
6 4 3 3 3 4 1 1 3 5 4 7 3 7 7 5 5 4 3 5 7 6 8 9 10 10 11 10 11 10 10 10 13 12 11 11 11 11 10 10 10 9 10 10 10 9 8 9 9 8 8 9 10 11 11 10 11 10 9 9 10 11 11 11 11 11 11 10 10 9 9 7 8 8 7 6 6 6 6 5 4 3 0 3 2 3
5 4 4 4 2 1 2 5 2 3 3 4 6 5 3 2 2 4 2 4 6 5 5 7 9 10 10 10 10 10 7 9 10 8 9 10 10 11 11 10 8 8 10 10 10 9 9 9 10 10 8 10 12 11 10 9 9 10 11 11 11 11 11 11 11 10 10 10 10 10 9 9 9 9 7 7 8 7 6 5 4 3 3 1 2 3
2 2 3 4 2 2 1 1 1 3 3 3 7 9 8 3 2 2 2 4 4 5 5 7 8 8 8 8 8 5 1 5 5 6 7 9 9 9 8 7 7 8 9 10 9 9 10 9 8 10 11 11 12 11 9 9 10 11 12 11 11 11 12 12 11 10 10 10 9 9 9 9 10 9 10 9 8 7 6 5 5 4 5 6 7 7
2 4 3 3 3 1 1 1 3 2 3 6 9 8 8 7 7 4 3 3 4 4 5 7 7 8 7 7 7 8 3 8 7 6 6 9 8 9 9 8 9 10 9 8 8 7 7 8 11 13 13 13 12 10 10 8 8 10 10 10 9 11 11 11 10 10 9 9 9 9 9 8 9 9 9 9 9 8 7 5 4 6 7 6 6 7
1 1 3 3 3 4 5 4 4 3 2 9 10 12 8 7 3 2 2 2 3 8 8 8 8 7 7 7 6 8 8 9 10 8 7 8 9 9 8 7 7 7 9 10 9 7 9 8 9 10 11 10 10 10 10 9 9 10 10 9 10 11 10 9 9 10 9 8 9 10 10 9 9 7 7 8 7 6 6 6 7 7 7 7 7 7
2 0 1 3 4 5 4 5 4 4 3 10 12 9 8 5 1 4 2 4 7 9 8 8 10 10 11 11 10 10 9 9 11 10 10 10 10 10 10 9 8 6 6 7 8 9 9 9 10 10 10 10 11 11 10 10 11 10 10 10 11 9 8 9 9 8 8 9 9 9 9 10 9 8 7 6 5 5 5 4 5 7 7 6 6 7
3 3 2 3 2 2 2 5 3 3 4 13 15 3 11 2 3 2 2 7 8 10 10 9 9 9 12 13 12 12 12 11 10 10 10 10 9 8 7 9 10 10 10 11 11 9 8 8 9 9 9 8 9 9 9 10 11 10 9 11 11 8 8 7 7 7 8 8 9 8 9 8 9 8 7 8 8 7 6 5 5 5 5 8 7 6
10 2 3 4 5 2 4 3 3 3 4 10 9 5 5 4 4 5 1 9 9 9 10 9 10 10 11 14 12 12 11 12 11 9 9 10 10 9 9 8 9 9 8 7 7 11 10 7 7 7 7 7 7 6 7 8 9 8 9 10 8 8 8 7 6 6 6 6 7 7 8 8 8 8 7 8 7 8 9 8 7 7 5 3 2 3
11 6 3 5 5 3 4 4 4 6 7 7 8 7 6 7 5 5 7 10 10 9 10 11 12 12 12 14 14 13 11 10 9 8 8 8 8 7 8 8 8 9 9 8 7 6 9 10 10 8 8 7 7 6 7 7 7 7 8 7 7 8 7 7 7 6 6 5 5 5 6 6 7 7 7 8 8 8 7 8 8 7 8 8 8 8
9 12 11 11 11 14 13 9 7 7 7 8 8 6 8 9 10 12 12 10 10 10 9 11 12 12 12 11 12 11 10 9 9 8 8 7 6 4 6 6 7 6 6 7 9 8 7 6 6 7 8 9 8 7 6 5 6 7 6 5 5 5 5 6 7 7 6 7 6 5 7 7 6 6 6 7 7 8 8 9 8 7 8 8 7 6
8 6 7 5 7 2 5 7 9 9 8 9 9 8 9 10 8 8 12 12 12 12 13 12 12 12 12 10 11 11 11 10 10 9 8 7 8 7 6 5 4 4 4 5 5 6 8 7 6 7 8 8 8 7 6 6 5 4 4 5 5 5 4 4 4 5 4 4 5 7 8 8 6 7 9 9 9 8 8 8 8 8 9 8 7 7
10 11 14 12 12 8 6 8 10 10 9 8 6 7 9 10 11 9 10 12 13 12 13 13 12 13 11 11 11 11 11 9 10 9 7 7 6 6 6 5 4 4 4 5 7 6 6 6 6 7 6 6 6 6 6 6 7 7 5 5 5 5 5 5 4 5 5 5 4 4 6 7 9 9 7 8 8 7 7 7 8 9 8 7 7 6
6 3 5 6 9 10 13 11 11 13 13 11 9 8 7 7 10 12 13 13 13 12 11 11 10 11 11 11 10 10 11 10 9 9 9 8 7 6 5 5 5 5 5 5 4 4 5 5 6 7 7 6 4 5 6 6 7 7 6 5 5 4 5 4 4 4 4 4 4 4 5 5 6 7 7 8 8 8 7 5 6 7 7 6 4 5
11 11 10 8 9 7 5 7 6 6 7 8 9 9 9 10 12 13 12 13 12 12 11 12 12 11 10 8 7 8 9 10 9 7 6 7 7 7 8 6 5 7 5 4 4 4 5 5 6 6 6 6 5 6 6 6 6 6 6 5 5 4 3 4 5 5 6 5 5 4 3 3 5 7 7 7 6 7 7 11 12 7 6 4 6 12
9 8 5 7 8 11 13 14 12 13 12 10 10 10 10 10 11 12 12 11 11 11 11 12 11 11 11 11 10 11 11 10 9 9 9 8 9 9 8 8 7 7 8 7 6 6 5 4 6 6 6 7 6 6 6 6 6 5 6 6 7 7 7 6 4 4 4 5 5 4 4 4 4 3 6 8 7 6 6 5 7 11 11 10 8 8
Wind_Direction
176 210 208 210 226 217 216 230 234 236 250 303 328 300 241 214 242 214 163 110 116 306 266 283 258 254 268 261 251 267 162 191 202 192 149 144 156 150 129 161 246 184 111 42 106 57 26 131 135 139 133 140 145 140 141 148 150 145 145 146 136 122 166 165 173 181 177 177 175 175 198 193 130 79 114 143 172 154 149 158 157 160 158 146 169 179
207 216 220 217 221 229 219 222 243 258 268 299 295 272 287 267 282 293 162 147 143 153 252 254 257 270 268 274 281 275 254 185 178 204 162 165 172 159 149 173 206 160 116 110 70 48 47 48 36 9 354 348 146 135 128 162 148 143 145 141 140 160 189 181 191 182 185 176 184 191 209 165 125 144 142 162 161 167 159 162 148 150 152 156 169 183
207 221 224 230 224 230 241 220 231 251 263 270 276 259 261 265 280 287 265 261 123 134 212 253 276 265 251 247 248 256 271 239 171 194 229 206 172 172 165 182 181 168 158 138 83 35 129 128 120 113 59 305 278 123 142 143 154 142 139 143 153 168 176 187 184 175 176 171 155 109 331 84 79 164 164 131 144 145 143 134 124 117 112 183 177 173
209 218 228 229 232 233 235 246 229 238 241 232 239 244 250 258 258 219 220 151 196 211 260 256 263 256 252 246 246 240 245 265 237 201 215 232 215 189 163 159 162 167 160 154 156 178 270 337 117 123 124 321 332 346 129 162 155 152 154 165 170 169 174 177 174 170 161 139 125 103 238 80 114 122 95 118 135 117 114 137 145 143 182 215 207 172
213 223 209 215 225 228 233 222 232 268 242 224 248 248 243 246 244 269 286 261 350 309 46 296 278 272 275 273 252 236 227 252 264 225 202 225 229 231 160 162 177 173 157 146 155 169 188 189 159 133 140 113 110 266 207 177 171 171 169 167 169 165 166 166 161 139 140 143 145 144 128 127 117 122 145 125 120 119 118 130 147 163 187 205 201 154
227 238 218 193 214 219 223 220 205 225 245 232 219 240 257 260 271 261 275 264 169 179 198 214 248 251 236 240 251 256 231 230 252 248 223 234 231 231 187 170 172 157 149 161 172 179 190 181 145 132 145 137 173 242 238 216 177 164 169 167 156 158 157 165 170 153 158 163 153 152 149 143 144 162 174 137 147 157 158 149 143 164 177 171 132 157
239 237 271 252 218 207 210 222 206 208 242 246 222 214 237 257 272 276 273 290 271 283 267 211 233 260 246 244 227 223 239 242 233 235 216 230 252 249 192 177 140 160 149 169 172 177 180 172 146 122 152 167 178 206 231 280 196 176 171 182 172 160 160 171 156 147 149 152 152 149 143 133 144 154 171 132 137 138 136 128 141 126 109 154 164 165
211 246 225 206 258 203 206 218 222 214 221 237 253 238 210 219 231 245 266 279 287 298 286 287 290 287 267 246 282 271 228 222 229 225 203 211 245 252 195 165 153 169 153 163 167 174 176 169 165 150 167 194 189 182 161 184 214 179 186 190 180 159 169 184 154 153 160 160 138 130 126 122 135 155 148 135 127 121 130 124 101 102 130 184 170 185
190 227 235 196 225 219 221 220 225 217 227 239 232 242 264 266 259 238 243 254 254 265 260 250 241 248 255 269 286 289 288 255 248 239 193 186 236 255 174 174 164 169 155 152 162 162 162 165 165 145 163 201 206 123 157 190 210 211 199 189 156 150 163 183 154 161 162 155 151 158 138 144 148 140 131 129 122 115 117 110 107 128 158 167 209 193
187 244 213 195 222 225 228 228 228 216 220 230 257 331 310 286 278 273 264 255 251 237 250 248 255 264 258 245 235 265 269 240 251 274 263 215 227 235 121 162 144 120 139 161 159 154 150 154 150 130 152 190 201 149 196 218 203 218 203 189 162 146 158 164 160 176 167 170 163 161 151 148 146 144 133 137 137 130 151 150 142 135 118 306 235 194
230 178 251 202 216 234 222 231 227 223 224 231 237 243 210 227 254 258 258 274 267 251 249 245 251 260 275 239 256 191 107 9 278 241 357 56 84 34 73 146 122 142 152 189 155 144 150 145 139 145 166 183 182 147 146 256 210 212 201 190 177 163 152 164 173 178 181 173 161 146 152 157 146 145 139 138 144 143 147 134 158 142 112 256 237 192
251 204 204 213 220 213 243 233 214 248 194 225 226 242 284 217 218 232 242 221 244 255 257 254 241 235 256 247 205 80 70 65 7 63 48 43 29 6 3 136 138 170 170 178 143 149 150 148 142 148 165 180 163 153 187 221 210 200 189 187 179 171 156 170 174 180 175 175 169 157 162 157 150 148 151 152 152 161 155 162 169 155 165 204 202 159
235 232 210 224 205 257 223 249 208 205 211 206 223 213 226 245 229 230 209 227 227 247 242 251 255 242 239 337 97 38 51 70 26 39 79 57 110 30 302 159 185 120 147 146 150 171 174 170 152 159 167 181 161 181 214 215 205 188 188 186 179 174 167 172 173 173 172 174 169 161 155 150 158 156 156 158 157 162 157 170 171 170 184 174 154 164
217 245 214 206 209 200 240 217 215 205 206 207 211 212 214 230 236 232 223 231 254 244 246 253 257 251 87 75 72 121 67 43 54 48 46 69 122 228 200 123 116 76 77 97 169 179 187 183 181 165 170 184 181 194 210 212 198 184 187 183 180 172 171 170 167 171 172 174 163 161 147 150 154 158 151 155 155 153 161 174 169 163 153 153 154 166
214 194 237 219 188 175 217 231 223 232 192 205 215 222 220 227 236 233 228 243 240 271 332 279 237 250 221 78 19 66 57 47 44 30 45 59 325 187 255 112 101 111 155 221 205 218 197 188 183 177 176 183 189 192 197 198 191 186 180 188 179 172 171 164 166 170 175 171 158 143 143 144 157 143 130 136 146 150 173 166 157 154 151 154 162 152
226 239 208 224 240 174 210 217 239 241 222 201 215 227 237 230 231 261 244 238 281 283 255 263 296 43 79 194 117 86 69 64 35 56 53 58 34 29 50 76 128 144 200 223 233 233 247 242 215 185 188 185 193 192 187 188 188 184 184 189 189 178 170 164 163 169 165 156 135 146 147 151 141 108 111 128 161 172 176 155 135 118 114 117 113 108
216 236 229 199 210 224 198 217 221 241 243 185 203 217 230 239 241 235 263 280 294 262 257 257 208 80 115 152 120 119 123 77 68 33 56 35 52 65 33 83 97 131 272 288 273 253 245 243 237 216 205 195 189 192 186 182 182 181 191 186 187 165 140 167 162 164 157 148 139 147 143 139 125 127 139 154 192 186 130 116 111 116 109 102 102 107
246 234 232 237 199 222 217 204 231 222 247 260 234 216 223 231 249 242 248 212 224 251 257 230 228 155 180 167 123 94 73 94 84 63 49 44 32 35 31 19 16 24 3 317 307 326 330 354 353 344 341 335 307 217 190 193 174 222 187 184 168 80 79 129 158 141 146 143 140 149 142 128 136 145 160 194 181 125 107 93 92 88 92 94 105 121
209 234 235 231 225 211 213 214 216 234 229 241 235 251 238 185 221 216 243 237 239 235 248 227 252 93 282 128 165 140 132 94 79 25 23 42 33 30 24 15 8 2 17 6 358 15 10 14 14 26 6 345 354 338 20 17 3 354 5 49 39 57 65 37 13 30 356 342 122 131 126 122 131 135 176 179 121 106 105 103 103 109 108 114 117 135
176 260 221 248 224 198 216 211 224 202 216 236 244 231 235 269 239 229 200 242 255 256 238 248 252 108 17 359 356 188 76 86 72 57 322 47 42 37 31 39 32 26 25 27 31 30 29 23 8 35 8 24 28 26 43 27 33 26 27 48 83 87 79 148 166 93 3 70 62 81 100 87 100 185 181 132 120 116 117 123 131 134 139 132 138 144
212 161 275 249 210 199 217 193 223 221 203 201 223 240 224 244 241 256 63 233 232 255 251 264 232 104 70 297 75 27 67 100 119 125 107 61 62 53 52 57 57 45 32 32 38 38 29 22 21 32 21 26 40 28 13 16 54 17 16 52 65 77 67 86 144 139 136 83 37 19 33 46 9 323 122 141 127 127 132 136 132 134 135 137 139 160
197 157 223 246 225 219 232 201 226 229 221 216 208 222 233 219 216 214 232 189 245 250 254 269 35 9 9 327 332 107 111 91 78 100 97 76 72 64 57 60 65 56 27 26 15 32 27 23 39 33 29 34 56 23 7 29 85 59 71 91 82 94 89 47 3 69 99 95 120 101 47 2 2 357 288 144 153 153 148 134 137 142 146 147 140 180
238 191 207 240 232 230 236 219 207 234 245 234 215 217 218 238 236 229 249 186 229 240 263 72 123 170 233 37 49 66 68 70 91 88 81 70 63 60 59 63 53 42 60 50 34 50 45 42 43 35 39 58 73 65 27 44 31 47 46 51 73 79 96 87 69 94 39 71 104 111 112 127 150 208 268 165 183 160 134 126 125 132 137 131 143 177
187 221 214 242 252 249 255 256 275 244 240 240 224 235 226 228 237 242 243 117 174 16 286 229 91 137 143 113 90 83 75 61 49 51 71 62 60 56 55 56 42 39 47 53 54 50 50 49 49 43 22 34 50 56 52 43 46 54 60 66 73 71 75 97 87 110 110 133 133 141 149 161 153 183 236 185 178 134 118 126 137 145 151 142 153 160
212 187 244 226 226 237 237 245 261 267 254 243 236 219 232 230 229 238 319 130 228 185 144 72 260 296 123 100 121 100 83 75 67 65 59 65 55 48 53 45 34 26 34 40 50 54 50 42 35 33 28 24 42 57 46 30 19 31 46 49 54 73 80 93 100 129 157 169 151 149 150 162 143 101 294 186 160 130 139 147 148 161 150 147 155 138
259 203 195 226 225 217 218 217 233 237 240 330 279 239 254 250 235 75 236 149 214 180 199 229 128 116 110 121 107 115 94 88 80 71 68 61 61 59 49 51 45 44 37 42 46 51 53 48 37 35 32 26 29 41 53 51 40 31 28 37 56 67 102 96 90 118 149 155 154 156 150 145 135 134 213 203 142 145 157 154 154 159 135 155 147 138
248 256 248 281 297 298 11 326 347 351 327 269 306 311 301 283 252 162 162 202 234 0 302 66 143 134 119 132 169 138 131 104 88 71 59 62 67 61 52 54 57 53 48 47 46 50 55 52 41 37 34 34 27 30 33 37 38 38 35 30 34 65 78 80 56 110 155 135 141 151 137 140 143 154 155 164 145 142 144 137 140 149 140 144 132 144
350 298 311 313 264 283 328 352 311 299 320 310 336 327 331 353 303 277 36 56 72 90 82 332 129 128 165 162 142 106 103 101 84 77 73 77 73 72 74 71 64 64 59 58 53 49 52 51 44 34 29 30 31 32 36 38 37 35 30 24 20 36 76 120 151 163 145 136 146 141 132 133 133 121 104 128 138 137 132 120 142 149 130 128 116 129
278 219 19 2 327 356 311 318 266 298 328 339 341 6 6 6 8 352 43 48 61 93 151 219 206 135 150 129 99 83 77 76 73 70 68 72 71 71 72 66 62 59 58 56 56 54 51 53 47 37 28 28 29 31 31 32 34 35 33 29 22 18 39 125 202 168 151 139 131 125 126 115 113 108 99 119 139 137 131 149 164 127 127 107 109 122
12 255 22 2 351 318 303 335 316 281 295 340 28 17 11 14 3 32 49 54 69 64 19 134 79 67 65 80 88 97 94 89 78 67 63 62 59 54 55 57 54 53 51 50 49 52 53 53 52 48 42 34 33 33 32 32 35 36 32 28 25 20 5 24 31 334 138 122 111 114 108 93 78 72 87 76 63 57 119 125 110 124 128 117 111 110
259 183 269 300 274 275 307 227 271 285 35 1 54 34 20 4 353 23 68 62 68 61 119 124 103 88 66 84 95 95 90 81 72 63 53 49 51 48 51 50 47 48 51 47 46 45 46 45 44 45 42 36 32 32 32 30 34 35 34 25 26 24 21 18 24 35 45 65 59 89 101 95 77 47 33 60 69 62 58 55 36 45 100 95 93 83
254 197 222 280 265 279 236 281 250 310 282 45 54 39 46 43 1 312 51 63 146 149 159 141 135 131 127 103 96 91 84 75 72 63 55 44 41 44 45 46 45 46 47 47 43 41 40 39 38 37 41 38 33 31 31 34 38 39 32 20 16 20 29 32 21 26 52 73 61 53 64 87 100 101 82 53 70 69 66 65 61 57 57 62 59 48
211 258 233 238 263 271 206 144 273 8 279 206 83 34 3 57 52 1 63 45 53 182 132 166 78 116 137 121 96 73 69 64 58 53 63 55 44 38 39 37 40 46 50 50 47 42 41 40 35 29 31 43 37 27 30 43 48 40 32 29 14 23 32 38 33 29 26 34 68 66 66 71 79 80 65 48 60 76 74 70 61 49 48 56 55 54
23 257 246 56 267 310 29 358 224 147 231 33 334 339 10 12 68 85 47 33 50 57 88 66 100 113 115 101 94 87 75 68 66 55 49 50 48 45 40 37 37 46 48 49 48 41 36 38 34 26 26 31 35 36 39 56 59 48 40 43 40 36 31 36 39 34 28 33 28 50 72 77 80 79 78 78 55 52 70 71 69 53 42 46 59 63
175 205 231 112 248 269 82 90 51 225 127 162 227 33 353 3 80 82 67 35 39 106 107 101 93 79 77 84 90 91 86 79 66 57 46 43 51 54 50 43 39 41 48 50 44 34 26 30 38 30 25 27 25 17 28 54 64 56 52 46 46 41 42 39 41 39 33 28 43 29 24 73 89 93 99 89 79 66 56 67 68 55 37 44 36 54
193 187 215 197 227 131 183 150 224 80 233 18 72 29 348 320 34 92 70 53 36 63 90 95 99 100 101 101 99 98 96 88 75 58 52 49 43 45 49 46 41 39 44 41 39 32 28 24 27 35 29 24 32 31 29 24 43 77 73 66 61 51 44 47 46 41 35 32 30 32 30 41 80 113 122 121 114 101 88 81 74 74 34 68 65 53
207 199 206 221 197 243 188 85 82 128 123 48 29 21 12 31 13 25 80 62 35 58 93 112 115 115 116 115 116 120 115 93 69 58 49 46 46 45 46 43 37 36 36 31 28 27 19 23 27 22 35 42 41 40 31 30 30 35 42 56 61 60 54 48 49 45 43 39 32 32 28 29 57 62 66 75 85 103 114 114 109 100 74 88 121 112
205 218 165 215 187 255 246 134 140 186 165 78 30 47 24 95 321 298 282 104 33 58 99 115 119 128 128 130 139 154 156 65 53 47 42 48 45 48 46 42 39 41 40 37 31 26 22 21 24 20 12 37 49 45 39 34 37 41 40 39 42 48 48 48 48 48 45 42 36 34 37 44 47 49 55 64 70 69 71 79 74 54 19 9 129 136
169 152 155 230 172 142 50 230 218 146 94 19 9 348 356 346 287 302 269 98 12 30 76 116 118 127 138 150 160 196 236 74 83 57 39 42 44 45 45 38 40 39 42 44 38 30 19 14 22 25 24 23 41 39 38 32 36 45 46 40 37 39 41 40 40 41 42 38 35 35 37 42 49 51 46 42 50 57 60 63 67 55 52 59 52 46
156 151 155 127 127 90 72 30 88 63 92 5 344 340 332 6 319 292 222 115 335 50 95 113 127 106 72 69 68 40 50 121 110 79 62 56 56 51 44 32 29 29 33 32 34 37 34 25 28 27 25 25 26 25 29 27 37 44 46 45 40 41 39 33 29 32 39 42 35 34 34 35 56 60 52 52 48 44 43 35 66 81 72 61 59 61
237 214 202 169 125 109 117 100 112 109 86 355 337 324 328 331 307 256 50 62 71 68 61 74 70 72 75 62 57 79 28 71 90 77 72 79 63 53 48 45 40 37 41 33 20 17 36 28 34 33 31 25 23 25 23 27 33 38 38 42 42 40 39 38 32 29 30 35 38 38 35 28 23 43 75 69 50 39 39 51 55 66 75 77 70 73
146 44 281 230 118 128 127 107 88 67 33 337 333 321 338 291 67 77 30 75 87 83 77 77 80 77 80 82 88 90 95 76 77 73 61 50 50 42 38 27 24 27 36 37 34 32 31 33 33 34 32 29 30 31 30 29 34 33 31 33 39 41 39 39 38 36 36 37 37 38 38 33 26 23 32 49 66 60 54 47 71 84 86 75 83 86
6 331 55 65 2 128 104 109 150 122 35 3 327 305 12 45 46 351 19 99 86 87 85 79 85 90 97 94 89 95 93 82 73 65 59 54 60 60 29 22 26 30 27 20 13 18 39 35 34 36 40 32 30 36 37 36 36 29 23 31 23 19 36 46 47 48 42 40 43 38 42 38 33 32 32 33 31 37 40 33 47 63 87 107 108 109
340 292 93 77 4 47 94 87 74 19 356 6 9 57 12 19 321 305 184 105 96 95 96 92 86 94 97 103 103 92 85 86 77 72 66 59 55 46 42 30 23 21 20 17 33 14 10 30 33 31 33 37 39 42 46 41 39 31 32 29 15 10 13 27 48 61 70 61 50 46 43 45 44 38 35 33 34 36 34 29 33 36 34 47 86 124
8 57 10 88 19 41 73 92 79 66 47 27 38 49 21 339 341 334 102 94 96 90 96 96 99 100 100 104 101 101 92 81 85 79 76 70 62 53 49 37 24 16 10 7 13 43 51 30 6 25 31 33 44 35 40 48 46 40 42 33 25 21 17 16 19 31 47 67 82 70 61 57 55 50 42 43 41 41 35 29 22 29 24 33 39 36
108 100 104 89 88 90 71 78 90 73 61 56 51 38 26 14 20 54 72 86 88 95 94 101 104 102 102 104 105 100 101 109 106 104 98 88 79 84 66 53 40 27 21 5 2 11 41 69 39 21 26 29 27 36 35 39 40 47 42 48 41 22 21 29 23 29 45 42 31 53 80 71 62 59 61 59 53 48 42 37 30 30 24 23 27 40
61 53 74 96 171 176 56 47 66 71 69 66 58 38 43 44 38 58 88 93 96 98 102 104 106 107 106 107 103 110 114 114 112 114 108 98 95 91 84 71 44 23 6 6 10 30 41 34 32 27 25 26 19 25 26 25 27 34 47 50 54 44 28 43 54 44 36 52 69 59 51 47 45 47 41 37 38 43 51 45 36 32 26 25 15 16
84 85 81 72 71 73 98 87 81 76 73 65 53 43 44 44 49 64 94 102 104 107 107 109 111 110 116 111 114 112 117 122 119 114 108 106 100 100 102 95 89 78 50 43 32 34 48 36 35 35 39 32 14 18 19 25 27 30 32 49 52 64 62 49 47 66 65 60 55 70 81 72 60 64 64 52 44 34 32 56 58 46 40 25 15 13
103 116 74 93 93 103 106 98 98 87 72 68 71 69 62 60 67 66 67 78 91 99 111 122 125 122 120 122 126 126 127 131 131 130 131 136 141 138 123 115 107 73 60 75 76 70 53 41 36 30 35 38 43 35 23 22 18 18 28 34 59 58 73 76 65 64 79 89 94 91 92 92 93 88 82 75 63 50 34 21 56 73 65 42 24 35
93 93 115 116 100 89 89 132 147 94 87 90 92 93 87 83 78 72 68 70 72 75 71 69 62 57 58 69 104 121 130 147 153 145 116 95 81 101 136 133 106 124 145 136 85 79 80 65 55 42 28 30 36 40 34 31 28 22 22 23 23 36 62 91 87 68 51 44 49 59 67 100 122 118 107 101 97 84 63 39 41 54 91 86 66 69
89 110 119 91 95 94 91 83 86 99 102 103 111 107 94 88 85 86 88 90 87 81 78 80 80 69 59 50 37 44 42 42 55 65 62 55 60 60 56 54 47 37 39 55 53 20 53 89 98 65 51 33 15 28 30 30 30 26 25 26 30 25 27 43 71 78 83 65 48 26 62 52 43 55 118 125 111 104 102 92 44 35 46 63 70 70